Date String (YYYY-MM-DD hh:mm:ss) UTC,Instrument flags,absolute air pressure of the measurement (hPa),sample flow rate (lpm),inlet stack bypass flow (lpm),air temperature of the measurement (°C),ambient temperature measured by the external sensor (°C),aerosol sample conditioner tube jacket temperature (°C),OPC LED temperature (°C),internal box temperature (°C),relative humidity of the measurement (%),span deviation,mass concentration of particles derived from Lorenz-Mie calculation of OPC scattering (μg/m³),mass concentration of particles derived from Lorenz-Mie calculation of OPC scattering (μg/m³),mass concentration of particles derived from Lorenz-Mie calculation of OPC scattering (μg/m³)
DateTimeUTC,F1_M11,P_M11,Q1_M11,Q2_M11,T1_M11,T2_M11,T3_M11,T4_M11,T5_M11,U1_M11,ZSPAN_M11,X0_M11,X2_M11,X1_M11
2023-12-03 12:00:00,SystemResetWarning,0818.3,5.00,000.00,018.8,017.8,000.0,027.2,020.0,20.2,0000.0,0003.37,0000.58,0000.21
2023-12-03 12:01:00,SystemResetWarning,0818.3,5.00,000.00,018.8,017.8,000.0,027.2,020.0,20.4,0000.0,0003.33,0000.58,0000.21
2023-12-03 12:02:00,SystemResetWarning,0818.4,4.99,000.00,018.8,017.8,000.0,027.2,020.0,20.4,0000.0,0003.39,0000.59,0000.21
2023-12-03 12:03:00,SystemResetWarning,0818.4,5.00,000.00,018.8,017.8,000.0,027.2,020.0,20.4,0000.0,0003.38,0000.58,0000.20
2023-12-03 12:04:00,SystemResetWarning,0818.4,5.00,000.00,018.8,017.8,000.0,027.2,020.0,20.6,0000.0,0002.95,0000.59,0000.21
2023-12-03 12:05:00,SystemResetWarning,0818.5,5.00,000.00,018.8,017.8,000.0,027.2,020.0,20.9,0000.0,0002.68,0000.56,0000.21
2023-12-03 12:06:00,SystemResetWarning,0818.5,4.99,000.00,018.8,017.8,000.0,027.2,020.0,21.2,0000.0,0002.68,0000.56,0000.21
2023-12-03 12:07:00,SystemResetWarning,0818.5,5.00,000.00,018.8,017.8,000.0,027.2,020.0,21.4,0000.0,0002.71,0000.56,0000.20
2023-12-03 12:08:00,SystemResetWarning,0818.5,5.01,000.00,018.8,017.8,000.0,027.2,020.0,21.7,0000.0,0002.93,0000.54,0000.19
2023-12-03 12:09:00,SystemResetWarning,0818.5,5.01,000.00,018.8,017.8,000.0,027.2,020.0,21.8,0000.0,0003.55,0000.53,0000.19
2023-12-03 12:10:00,SystemResetWarning,0818.5,5.00,000.00,018.8,017.8,000.0,027.2,020.0,21.9,0000.0,0003.94,0000.51,0000.19
2023-12-03 12:11:00,SystemResetWarning,0818.6,4.99,000.00,018.8,017.8,000.0,027.2,020.0,21.9,0000.0,0004.20,0000.56,0000.19
2023-12-03 12:12:00,SystemResetWarning,0818.6,4.99,000.00,018.8,017.8,000.0,027.2,020.0,22.0,0000.0,0004.82,0000.60,0000.19
2023-12-03 12:13:00,SystemResetWarning,0818.6,4.99,000.00,018.8,017.8,000.0,027.2,020.0,22.0,0000.0,0005.13,0000.61,0000.19
2023-12-03 12:14:00,SystemResetWarning,0818.7,5.00,000.00,018.7,017.8,000.0,027.2,020.0,22.1,0000.0,0005.28,0000.61,0000.19
2023-12-03 12:15:00,SystemResetWarning,0818.7,5.01,000.00,018.7,017.8,000.0,027.2,020.0,22.2,0000.0,0004.92,0000.60,0000.18
2023-12-03 12:16:00,SystemResetWarning,0818.7,5.00,000.00,018.8,017.8,000.0,027.3,020.0,22.3,0000.0,0004.81,0000.61,0000.18
2023-12-03 12:17:00,SystemResetWarning,0818.7,5.00,000.00,018.7,017.8,000.0,027.3,020.0,22.4,0000.0,0004.85,0000.64,0000.18
2023-12-03 12:18:00,SystemResetWarning,0818.7,5.00,000.00,018.7,017.8,000.0,027.3,020.0,22.5,0000.0,0004.91,0000.66,0000.19
2023-12-03 12:19:00,SystemResetWarning,0818.8,5.00,000.00,018.7,017.8,000.0,027.3,020.0,22.7,0000.0,0004.07,0000.67,0000.20
2023-12-03 12:20:00,SystemResetWarning,0818.8,5.00,000.00,018.7,017.8,000.0,027.3,020.0,22.8,0000.0,0003.31,0000.68,0000.19
2023-12-03 12:21:00,SystemResetWarning,0819.2,4.99,000.00,018.7,017.8,000.0,027.3,020.0,22.8,0000.0,0002.82,0000.70,0000.20
2023-12-03 12:22:00,SystemResetWarning,0819.1,5.00,000.00,018.7,017.8,000.0,027.3,020.0,23.0,0000.0,0002.69,0000.68,0000.20
2023-12-03 12:23:00,SystemResetWarning,0818.8,5.00,000.00,018.7,017.8,000.0,027.3,020.0,23.1,0000.0,0002.16,0000.65,0000.20
2023-12-03 12:24:00,SystemResetWarning,0819.1,5.01,000.00,018.7,017.8,000.0,027.3,020.0,23.2,0000.0,0001.73,0000.62,0000.19
2023-12-03 12:25:00,SystemResetWarning,0819.2,5.00,000.00,018.7,017.8,000.0,027.3,020.0,23.2,0000.0,0001.62,0000.63,0000.20
2023-12-03 12:26:00,SystemResetWarning,0819.0,5.00,000.00,018.7,017.8,000.0,027.3,020.0,23.3,0000.0,0001.54,0000.61,0000.20
2023-12-03 12:27:00,SystemResetWarning,0819.0,5.00,000.00,018.7,017.8,000.0,027.2,020.0,23.5,0000.0,0001.47,0000.60,0000.20
2023-12-03 12:28:00,SystemResetWarning,0819.1,5.01,000.00,018.7,017.8,000.0,027.2,020.0,23.6,0000.0,0002.35,0000.60,0000.20
2023-12-03 12:29:00,SystemResetWarning,0819.1,5.00,000.00,018.7,017.9,000.0,027.3,020.0,23.7,0000.0,0002.37,0000.61,0000.21
2023-12-03 12:30:00,SystemResetWarning,0819.2,5.00,000.00,018.7,017.8,000.0,027.2,020.0,23.9,0000.0,0002.35,0000.60,0000.21
2023-12-03 12:31:00,SystemResetWarning,0819.3,5.00,000.00,018.7,017.9,000.0,027.2,020.0,24.0,0000.0,0002.28,0000.58,0000.21
2023-12-03 12:32:00,SystemResetWarning,0819.3,5.00,000.00,018.7,017.9,000.0,027.3,020.0,24.0,0000.0,0002.33,0000.58,0000.22
2023-12-03 12:33:00,SystemResetWarning,0819.3,5.00,000.00,018.7,017.8,000.0,027.3,020.0,24.0,0000.0,0002.51,0000.60,0000.23
2023-12-03 12:34:00,SystemResetWarning,0819.5,5.00,000.00,018.7,017.8,000.0,027.3,020.0,24.1,0000.0,0002.70,0000.61,0000.23
2023-12-03 12:35:00,SystemResetWarning,0819.3,5.00,000.00,018.7,017.8,000.0,027.3,020.0,24.3,0000.0,0002.78,0000.61,0000.24
2023-12-03 12:36:00,SystemResetWarning,0819.3,5.00,000.00,018.7,017.8,000.0,027.3,020.0,24.4,0000.0,0002.94,0000.59,0000.24
2023-12-03 12:37:00,SystemResetWarning,0819.3,5.00,000.00,018.7,017.8,000.0,027.3,020.0,24.4,0000.0,0002.99,0000.59,0000.25
2023-12-03 12:38:00,SystemResetWarning,0819.3,5.00,000.00,018.7,017.8,000.0,027.3,020.0,24.5,0000.0,0003.30,0000.63,0000.25
2023-12-03 12:39:00,SystemResetWarning,0819.4,4.99,000.00,018.7,017.8,000.0,027.3,020.0,24.6,0000.0,0002.85,0000.62,0000.25
2023-12-03 12:40:00,SystemResetWarning,0819.3,5.00,000.00,018.7,017.8,000.0,027.3,020.0,24.6,0000.0,0002.78,0000.59,0000.24
2023-12-03 12:41:00,SystemResetWarning,0819.3,5.00,000.00,018.7,017.8,000.0,027.3,020.0,24.7,0000.0,0002.73,0000.57,0000.23
2023-12-03 12:42:00,SystemResetWarning,0819.3,5.00,000.00,018.7,017.8,000.0,027.3,020.0,24.7,0000.0,0002.71,0000.57,0000.24
2023-12-03 12:43:00,SystemResetWarning,0819.4,5.00,000.00,018.7,017.9,000.0,027.3,020.0,24.8,0000.0,0002.69,0000.57,0000.24
2023-12-03 12:44:00,SystemResetWarning,0819.5,5.00,000.00,018.7,017.9,000.0,027.3,020.0,24.8,0000.0,0002.48,0000.54,0000.23
2023-12-03 12:45:00,SystemResetWarning,0819.5,5.00,000.00,018.7,017.9,000.0,027.3,020.0,24.9,0000.0,0002.38,0000.57,0000.24
2023-12-03 12:46:00,SystemResetWarning,0819.5,5.00,000.00,018.7,017.9,000.0,027.3,020.0,24.9,0000.0,0002.66,0000.61,0000.25
2023-12-03 12:47:00,SystemResetWarning,0819.5,5.00,000.00,018.7,017.9,000.0,027.3,020.0,24.9,0000.0,0003.08,0000.65,0000.25
2023-12-03 12:48:00,SystemResetWarning,0819.5,5.00,000.00,018.7,017.9,000.0,027.3,020.0,24.9,0000.0,0003.92,0000.69,0000.25
2023-12-03 12:49:00,SystemResetWarning,0819.4,5.00,000.00,018.7,017.8,000.0,027.2,020.0,24.9,0000.0,0003.64,0000.66,0000.25
2023-12-03 12:50:00,SystemResetWarning,0819.4,5.01,000.00,018.7,017.8,000.0,027.3,020.0,25.0,0000.0,0003.26,0000.70,0000.25
2023-12-03 12:51:00,SystemResetWarning,0819.4,5.00,000.00,018.7,017.8,000.0,027.3,020.0,25.0,0000.0,0003.32,0000.72,0000.26
2023-12-03 12:52:00,SystemResetWarning,0819.5,4.99,000.00,018.7,017.8,000.0,027.2,020.0,25.0,0000.0,0003.47,0000.75,0000.26
2023-12-03 12:53:00,SystemResetWarning,0819.5,4.99,000.00,018.7,017.8,000.0,027.2,020.0,25.1,0000.0,0004.73,0000.76,0000.25
2023-12-03 12:54:00,SystemResetWarning,0819.9,4.99,000.00,018.7,017.8,000.0,027.3,020.0,25.1,0000.0,0004.92,0000.77,0000.25
2023-12-03 12:55:00,SystemResetWarning,0819.8,5.00,000.00,018.7,017.8,000.0,027.3,020.0,25.1,0000.0,0004.97,0000.80,0000.25
2023-12-03 12:56:00,SystemResetWarning,0819.7,5.00,000.00,018.7,017.8,000.0,027.2,020.0,25.1,0000.0,0004.90,0000.81,0000.25
2023-12-03 12:57:00,SystemResetWarning,0819.7,5.01,000.00,018.7,017.9,000.0,027.2,020.0,25.1,0000.0,0004.66,0000.83,0000.24
2023-12-03 12:58:00,SystemResetWarning,0819.7,5.01,000.00,018.7,017.9,000.0,027.2,020.0,25.2,0000.0,0004.08,0000.81,0000.23
2023-12-03 12:59:00,SystemResetWarning,0819.8,4.99,000.00,018.7,017.9,000.0,027.2,020.0,25.2,0000.0,0003.81,0000.80,0000.23
